Volver al catálogo

STARLINK-30756

ActivoComunicacionesVLEO
NORAD 58129·PAYLOAD·🇺🇸 United States

Lanzado Oct 22, 2023 desde Cape Canaveral Space Force Station

Loading…

Próximos Pases (próximas 24 horas)

TLE

ActualizadoSource: CelesTrak SupGP

Época: Sep 14, 2026, 21:39 UTC

1 58129C 23162M   26257.90256944 -.00011338  00000+0 -41072-3 0  2571
2 58129  42.9999 143.8960 0001363 258.2639 146.2325 15.27579731    19

Sigue STARLINK-30756 en tiempo real con AllMySat

Download on the App Store